Cloud_Cover
100 87 5 1 0 0 0 0 0 0 65 100 48 21 12 5 66 100 100 100 100 100 100 100 80 95 57 100 88 5 6 100 53 100 96 11 5 5 9 5 2 2 0
85 47 6 0 0 0 0 0 0 0 71 100 4 0 4 5 6 43 94 100 100 100 100 100 99 100 54 100 82 5 68 10 60 100 99 7 35 32 38 9 4 2 1
58 88 62 54 3 0 0 0 0 0 25 100 30 5 19 2 2 25 15 90 99 100 100 100 100 91 98 96 77 100 94 51 100 100 6 23 38 11 12 71 99 6 11
53 88 83 49 21 0 0 0 0 0 1 18 22 0 12 3 0 3 48 93 100 100 100 100 100 100 73 96 97 99 95 100 100 34 97 15 100 4 76 30 92 20 99
94 100 100 100 94 21 3 0 0 0 0 0 0 0 1 1 6 1 14 100 100 100 100 100 100 100 35 100 98 100 66 88 95 49 100 100 100 3 33 98 98 98 100
42 100 100 100 100 100 84 4 3 9 3 1 54 33 5 5 5 5 5 99 100 100 100 100 100 100 95 100 100 96 84 100 100 100 99 92 96 6 8 23 57 100 82
69 11 99 100 100 100 100 8 9 45 20 6 33 100 96 11 5 5 5 6 100 100 100 100 100 95 99 100 100 100 98 57 100 100 98 98 13 100 5 0 14 27 98
95 2 5 3 5 0 9 2 0 30 50 37 70 100 100 100 5 5 5 5 43 100 100 100 93 35 100 100 100 100 100 100 100 100 100 100 87 20 0 0 6 100 99
100 10 5 5 82 0 0 0 1 12 21 4 12 100 100 95 55 5 5 66 98 100 100 100 91 100 100 100 100 100 99 100 74 100 100 90 95 8 0 0 0 98 61
76 62 24 0 3 0 0 0 0 2 1 7 5 19 100 100 57 39 100 85 100 100 100 100 100 91 100 100 100 100 99 100 100 100 62 96 44 71 0 0 0 30 38
100 100 100 5 0 0 0 1 0 0 2 18 5 5 45 44 100 100 84 28 48 97 64 100 100 100 100 100 100 59 100 100 100 46 94 100 91 13 0 0 0 0 4
97 71 99 8 77 0 0 5 0 0 5 23 5 5 5 5 5 59 100 73 5 33 42 100 100 100 100 100 100 95 68 76 96 100 100 32 100 65 0 0 0 0 5
100 68 79 100 89 0 0 0 0 0 19 5 6 7 5 50 5 5 95 53 7 36 100 100 100 100 100 99 100 95 98 100 100 97 66 100 96 1 0 0 0 4 5
43 25 2 90 92 1 0 0 0 2 9 26 47 15 5 5 5 91 100 98 96 100 100 100 100 100 100 100 91 96 70 85 96 100 100 85 46 0 0 0 0 4 5
1 0 1 1 56 0 0 98 100 44 85 82 72 27 5 14 37 82 66 100 100 100 100 100 100 100 100 100 78 78 34 100 99 100 99 42 3 0 0 0 0 5 37
4 11 0 0 0 4 100 99 100 100 87 100 74 29 24 28 43 99 100 100 100 100 100 100 100 100 100 61 98 100 100 100 100 100 30 6 0 0 0 3 5 5 5
88 30 34 0 0 0 28 6 100 99 100 100 100 100 76 94 100 100 100 100 100 100 100 100 100 100 94 94 45 30 26 88 21 13 0 0 0 0 0 0 0 5 6
100 100 100 3 0 0 19 81 100 100 100 100 100 100 100 100 100 100 100 100 100 100 100 100 98 98 100 100 99 9 16 15 97 0 0 0 0 0 0 1 5 5 22
100 100 100 0 0 0 4 33 100 100 100 100 100 100 100 100 100 100 100 100 100 90 100 100 100 100 100 42 5 97 97 100 14 0 0 0 0 0 0 0 4 5 8
100 100 48 0 0 0 0 37 98 39 100 100 100 100 100 100 100 100 100 100 100 100 99 100 100 100 100 100 100 100 94 4 0 0 0 0 0 0 0 0 5 5 17
100 100 100 0 0 0 0 2 24 13 100 100 100 100 99 92 99 90 100 94 94 39 9 83 86 19 5 4 4 4 0 0 0 0 0 0 0 0 0 0 3 59 4
92 94 100 5 68 1 0 0 2 5 98 100 100 100 100 100 100 100 100 11 70 100 95 92 90 94 100 22 1 0 0 0 0 0 0 0 0 0 4 1 27 86 5
100 92 10 2 96 8 0 0 0 55 98 100 100 100 100 100 100 94 100 100 100 100 100 100 100 63 23 6 4 0 0 0 0 0 0 0 0 0 0 5 31 20 5
100 100 94 87 55 100 24 1 0 0 92 100 98 100 100 100 100 100 93 44 10 92 98 62 47 15 6 0 0 0 0 0 0 0 0 0 4 0 5 0 5 22 5
74 99 100 100 33 52 100 7 0 0 4 100 100 97 100 95 100 83 94 76 49 82 24 22 10 5 4 1 0 0 0 0 0 0 0 0 0 0 4 4 4 70 5
99 100 100 91 15 5 91 100 41 0 0 32 88 100 100 100 100 84 51 65 38 69 50 64 14 0 0 0 0 0 0 0 0 0 0 0 0 0 5 10 7 5 76